Вернуться в каталог

OPS 4682 DEB

АктивенPO
NORAD 55113·DEBRIS·🇺🇸 United States

Запущен Apr 3, 1965 с Vandenberg Space Force Base

Loading…

Ближайшие Пролёты (ближайшие 24 часа)

TLE

СвежийSource: Space-Track

Эпоха: Sep 14, 2026, 13:53 UTC

1 55113U 65027HC  26257.57913274 -.00000101  00000-0 -37533-3 0  9993
2 55113  90.2573  11.5533 0022186 219.8014 140.1480 12.97084685606229

Отслеживайте OPS 4682 DEB в реальном времени с AllMySat

Download on the App Store